Time,TemperatureF,DewpointF,PressureIn,WindDirection,WindDirectionDegrees,WindSpeedMPH,WindSpeedGustMPH,Humidity,HourlyPrecipIn,Conditions,Clouds,dailyrainin,SoftwareType,DateUTC
2013-02-27 00:02:00,41.0,32.0,29.56,West,269,0.0,0.0,70,0.00,,,0.00,,2013-02-27 06:02:00,
2013-02-27 00:11:00,41.0,32.0,29.56,West,269,0.0,0.0,70,0.00,,,0.00,,2013-02-27 06:11:00,
2013-02-27 00:21:00,41.0,32.0,29.57,West,269,0.0,0.0,70,0.00,,,0.00,,2013-02-27 06:21:00,
2013-02-27 00:32:00,40.0,32.0,29.57,West,269,0.0,0.0,72,0.00,,,0.00,,2013-02-27 06:32:00,
2013-02-27 00:41:00,40.0,32.0,29.57,West,269,0.0,0.0,72,0.00,,,0.00,,2013-02-27 06:41:00,
2013-02-27 00:52:00,40.0,32.0,29.58,West,269,0.0,0.0,73,0.00,,,0.00,,2013-02-27 06:52:00,
2013-02-27 01:01:00,40.0,32.0,29.59,West,269,0.0,0.0,74,0.00,,,0.00,,2013-02-27 07:01:00,
2013-02-27 01:12:00,40.0,32.0,29.59,West,269,0.0,0.0,74,0.00,,,0.00,,2013-02-27 07:12:00,
2013-02-27 01:21:00,40.0,32.0,29.59,West,269,0.0,0.0,73,0.00,,,0.00,,2013-02-27 07:21:00,
2013-02-27 01:32:00,39.0,32.0,29.58,West,269,0.0,0.0,75,0.00,,,0.00,,2013-02-27 07:32:00,
2013-02-27 01:42:00,39.0,32.0,29.58,West,269,0.0,0.0,75,0.00,,,0.00,,2013-02-27 07:42:00,
2013-02-27 01:52:00,39.0,32.0,29.58,West,269,0.0,0.0,76,0.00,,,0.00,,2013-02-27 07:52:00,
2013-02-27 02:01:00,40.0,32.0,29.57,NNE,33,0.0,2.0,73,0.00,,,0.00,,2013-02-27 08:01:00,
2013-02-27 02:11:00,40.0,32.0,29.57,NNE,33,0.0,2.0,73,0.00,,,0.00,,2013-02-27 08:11:00,
2013-02-27 02:21:00,39.0,31.0,29.57,ENE,73,1.0,3.0,74,0.00,,,0.00,,2013-02-27 08:21:00,
2013-02-27 02:32:00,40.0,32.0,29.55,ENE,78,1.0,4.0,72,0.00,,,0.00,,2013-02-27 08:32:00,
2013-02-27 02:41:00,40.0,32.0,29.55,ENE,78,1.0,4.0,72,0.00,,,0.00,,2013-02-27 08:41:00,
2013-02-27 02:53:00,40.0,32.0,29.56,ENE,63,0.0,3.0,72,0.00,,,0.00,,2013-02-27 08:53:00,
2013-02-27 03:02:00,40.0,32.0,29.59,NNE,13,0.0,1.0,73,0.00,,,0.00,,2013-02-27 09:02:00,
2013-02-27 03:12:00,40.0,32.0,29.59,NNE,13,0.0,1.0,73,0.00,,,0.00,,2013-02-27 09:12:00,
2013-02-27 03:22:00,39.0,32.0,29.59,NNE,13,0.0,0.0,75,0.00,,,0.00,,2013-02-27 09:22:00,
2013-02-27 03:32:00,39.0,32.0,29.60,NNW,346,0.0,1.0,75,0.00,,,0.00,,2013-02-27 09:32:00,
2013-02-27 03:41:00,39.0,32.0,29.60,NNW,346,0.0,1.0,75,0.00,,,0.00,,2013-02-27 09:41:00,
2013-02-27 03:52:00,38.0,31.0,29.59,NNW,346,0.0,0.0,76,0.00,,,0.00,,2013-02-27 09:52:00,
2013-02-27 04:01:00,38.0,31.0,29.59,North,355,0.0,0.0,77,0.00,,,0.00,,2013-02-27 10:01:00,
2013-02-27 04:12:00,38.0,31.0,29.59,North,355,0.0,0.0,77,0.00,,,0.00,,2013-02-27 10:12:00,
2013-02-27 04:22:00,38.0,31.0,29.59,North,355,0.0,0.0,77,0.00,,,0.00,,2013-02-27 10:22:00,
2013-02-27 04:32:00,39.0,31.0,29.58,NNE,19,2.0,7.0,74,0.00,,,0.00,,2013-02-27 10:32:00,
2013-02-27 04:42:00,39.0,31.0,29.58,NNE,19,2.0,7.0,74,0.00,,,0.00,,2013-02-27 10:42:00,
2013-02-27 04:52:00,40.0,31.0,29.61,NW,315,2.0,5.0,70,0.00,,,0.00,,2013-02-27 10:52:00,
2013-02-27 05:02:00,40.0,31.0,29.63,NNW,333,2.0,9.0,69,0.00,,,0.00,,2013-02-27 11:02:00,
2013-02-27 05:12:00,40.0,31.0,29.63,NNW,333,2.0,9.0,69,0.00,,,0.00,,2013-02-27 11:12:00,
2013-02-27 05:22:00,40.0,31.0,29.64,NNE,28,1.0,8.0,71,0.00,,,0.00,,2013-02-27 11:22:00,
2013-02-27 05:32:00,39.0,31.0,29.64,NNW,339,1.0,10.0,73,0.00,,,0.00,,2013-02-27 11:32:00,
2013-02-27 05:41:00,39.0,31.0,29.64,NNW,339,1.0,10.0,73,0.00,,,0.00,,2013-02-27 11:41:00,
2013-02-27 05:52:00,39.0,31.0,29.65,NW,324,3.0,8.0,74,0.00,,,0.00,,2013-02-27 11:52:00,
2013-02-27 06:02:00,39.0,31.0,29.65,NW,324,3.0,8.0,74,0.00,,,0.00,,2013-02-27 12:02:00,
2013-02-27 06:13:00,39.0,31.0,29.65,NW,324,3.0,8.0,74,0.00,,,0.00,,2013-02-27 12:13:00,
2013-02-27 06:22:00,39.0,31.0,29.66,NNW,327,6.0,15.0,74,0.00,,,0.00,,2013-02-27 12:22:00,
2013-02-27 06:32:00,39.0,32.0,29.67,NNE,21,4.0,9.0,76,0.00,,,0.00,,2013-02-27 12:32:00,
2013-02-27 06:42:00,39.0,32.0,29.67,NNE,21,4.0,9.0,76,0.00,,,0.00,,2013-02-27 12:42:00,
2013-02-27 06:52:00,38.0,31.0,29.67,NNW,344,3.0,8.0,77,0.00,,,0.00,,2013-02-27 12:52:00,
2013-02-27 07:02:00,38.0,31.0,29.68,NW,324,4.0,11.0,77,0.00,,,0.00,,2013-02-27 13:02:00,
2013-02-27 07:11:00,38.0,31.0,29.68,NW,324,4.0,11.0,77,0.00,,,0.00,,2013-02-27 13:11:00,
2013-02-27 07:22:00,38.0,31.0,29.69,NW,317,3.0,8.0,77,0.00,,,0.00,,2013-02-27 13:22:00,
2013-02-27 07:32:00,37.0,31.0,29.71,North,355,4.0,13.0,78,0.00,,,0.00,,2013-02-27 13:32:00,
2013-02-27 07:42:00,37.0,31.0,29.71,North,355,4.0,13.0,78,0.00,,,0.00,,2013-02-27 13:42:00,
2013-02-27 07:52:00,37.0,31.0,29.72,WNW,299,3.0,9.0,79,0.00,,,0.00,,2013-02-27 13:52:00,
2013-02-27 08:02:00,37.0,31.0,29.72,NW,315,1.0,10.0,79,0.00,,,0.00,,2013-02-27 14:02:00,
2013-02-27 08:12:00,37.0,31.0,29.72,NW,315,1.0,10.0,79,0.00,,,0.00,,2013-02-27 14:12:00,
2013-02-27 08:22:00,38.0,31.0,29.74,WNW,292,4.0,10.0,77,0.00,,,0.00,,2013-02-27 14:22:00,
2013-02-27 08:32:00,39.0,32.0,29.75,NNW,333,5.0,9.0,76,0.00,,,0.00,,2013-02-27 14:32:00,
2013-02-27 08:42:00,39.0,32.0,29.75,NNW,333,5.0,9.0,76,0.00,,,0.00,,2013-02-27 14:42:00,
2013-02-27 08:52:00,40.0,32.0,29.75,NNW,330,1.0,4.0,74,0.00,,,0.00,,2013-02-27 14:52:00,
2013-02-27 09:02:00,41.0,32.0,29.76,NNW,331,2.0,6.0,70,0.00,,,0.00,,2013-02-27 15:02:00,
2013-02-27 09:12:00,41.0,32.0,29.76,NNW,331,2.0,6.0,70,0.00,,,0.00,,2013-02-27 15:12:00,
2013-02-27 09:22:00,42.0,31.0,29.77,WNW,294,4.0,10.0,66,0.00,,,0.00,,2013-02-27 15:22:00,
2013-02-27 09:32:00,42.0,31.0,29.78,WNW,284,5.0,9.0,64,0.00,,,0.00,,2013-02-27 15:32:00,
2013-02-27 09:42:00,42.0,31.0,29.78,WNW,284,5.0,9.0,64,0.00,,,0.00,,2013-02-27 15:42:00,
2013-02-27 09:52:00,43.0,31.0,29.78,WNW,283,4.0,8.0,62,0.00,,,0.00,,2013-02-27 15:52:00,
2013-02-27 10:02:00,44.0,31.0,29.79,NW,322,6.0,11.0,60,0.00,,,0.00,,2013-02-27 16:02:00,
2013-02-27 10:12:00,44.0,31.0,29.79,NW,322,6.0,11.0,60,0.00,,,0.00,,2013-02-27 16:12:00,
2013-02-27 10:22:00,45.0,31.0,29.79,WNW,284,5.0,10.0,57,0.00,,,0.00,,2013-02-27 16:22:00,
2013-02-27 10:32:00,46.0,30.0,29.80,WNW,294,4.0,11.0,54,0.00,,,0.00,,2013-02-27 16:32:00,
2013-02-27 10:42:00,46.0,30.0,29.80,WNW,294,4.0,11.0,54,0.00,,,0.00,,2013-02-27 16:42:00,
2013-02-27 10:52:00,46.0,30.0,29.80,WNW,294,4.0,11.0,54,0.00,,,0.00,,2013-02-27 16:52:00,
2013-02-27 11:02:00,46.0,30.0,29.80,WNW,294,4.0,11.0,54,0.00,,,0.00,,2013-02-27 17:02:00,
2013-02-27 11:21:00,49.0,29.0,29.81,NW,324,4.0,10.0,46,0.00,,,0.00,,2013-02-27 17:21:00,
2013-02-27 11:32:00,50.0,28.0,29.81,WNW,290,7.0,11.0,42,0.00,,,0.00,,2013-02-27 17:32:00,
2013-02-27 11:42:00,50.0,28.0,29.81,WNW,290,7.0,11.0,42,0.00,,,0.00,,2013-02-27 17:42:00,
2013-02-27 11:52:00,51.0,29.0,29.81,WNW,292,4.0,12.0,42,0.00,,,0.00,,2013-02-27 17:52:00,
2013-02-27 12:02:00,52.0,28.0,29.81,WNW,295,7.0,16.0,40,0.00,,,0.00,,2013-02-27 18:02:00,
2013-02-27 12:11:00,52.0,28.0,29.81,WNW,295,7.0,16.0,40,0.00,,,0.00,,2013-02-27 18:11:00,
2013-02-27 12:22:00,53.0,27.0,29.81,NW,309,7.0,14.0,36,0.00,,,0.00,,2013-02-27 18:22:00,
2013-02-27 12:32:00,53.0,27.0,29.81,NNW,344,5.0,13.0,36,0.00,,,0.00,,2013-02-27 18:32:00,
2013-02-27 12:42:00,53.0,27.0,29.81,NNW,344,5.0,13.0,36,0.00,,,0.00,,2013-02-27 18:42:00,
2013-02-27 12:51:00,54.0,25.0,29.81,NW,313,7.0,14.0,32,0.00,,,0.00,,2013-02-27 18:51:00,
2013-02-27 13:01:00,54.0,22.0,29.81,NNW,340,6.0,13.0,29,0.00,,,0.00,,2013-02-27 19:01:00,
2013-02-27 13:12:00,54.0,22.0,29.81,NNW,340,6.0,13.0,29,0.00,,,0.00,,2013-02-27 19:12:00,
2013-02-27 13:21:00,55.0,23.0,29.81,WNW,285,5.0,14.0,28,0.00,,,0.00,,2013-02-27 19:21:00,
2013-02-27 13:32:00,55.0,20.0,29.80,WNW,302,7.0,13.0,25,0.00,,,0.00,,2013-02-27 19:32:00,
2013-02-27 13:42:00,55.0,20.0,29.80,WNW,302,7.0,13.0,25,0.00,,,0.00,,2013-02-27 19:42:00,
2013-02-27 13:52:00,55.0,21.0,29.80,NW,315,7.0,17.0,26,0.00,,,0.00,,2013-02-27 19:52:00,
2013-02-27 14:01:00,56.0,23.0,29.80,WNW,298,7.0,14.0,27,0.00,,,0.00,,2013-02-27 20:01:00,
2013-02-27 14:12:00,56.0,23.0,29.80,WNW,298,7.0,14.0,27,0.00,,,0.00,,2013-02-27 20:12:00,
2013-02-27 14:21:00,56.0,23.0,29.80,NW,323,8.0,17.0,28,0.00,,,0.00,,2013-02-27 20:21:00,
2013-02-27 14:32:00,56.0,25.0,29.80,WNW,297,5.0,13.0,30,0.00,,,0.00,,2013-02-27 20:32:00,
2013-02-27 14:42:00,56.0,25.0,29.80,WNW,297,5.0,13.0,30,0.00,,,0.00,,2013-02-27 20:42:00,
2013-02-27 14:52:00,57.0,26.0,29.79,NW,317,5.0,16.0,30,0.00,,,0.00,,2013-02-27 20:52:00,
2013-02-27 15:02:00,56.0,26.0,29.80,WNW,291,6.0,15.0,31,0.00,,,0.00,,2013-02-27 21:02:00,
2013-02-27 15:11:00,56.0,26.0,29.80,WNW,291,6.0,15.0,31,0.00,,,0.00,,2013-02-27 21:11:00,
2013-02-27 15:22:00,56.0,27.0,29.80,West,264,6.0,17.0,32,0.00,,,0.00,,2013-02-27 21:22:00,
2013-02-27 15:32:00,56.0,25.0,29.80,WNW,296,9.0,16.0,30,0.00,,,0.00,,2013-02-27 21:32:00,
2013-02-27 15:42:00,56.0,25.0,29.80,WNW,296,9.0,16.0,30,0.00,,,0.00,,2013-02-27 21:42:00,
2013-02-27 15:51:00,56.0,26.0,29.80,WNW,290,8.0,16.0,31,0.00,,,0.00,,2013-02-27 21:51:00,
2013-02-27 16:01:00,56.0,26.0,29.80,WSW,257,5.0,14.0,31,0.00,,,0.00,,2013-02-27 22:01:00,
2013-02-27 16:11:00,56.0,26.0,29.80,WSW,257,5.0,14.0,31,0.00,,,0.00,,2013-02-27 22:11:00,
2013-02-27 16:21:00,56.0,26.0,29.79,NW,325,4.0,12.0,31,0.00,,,0.00,,2013-02-27 22:21:00,
2013-02-27 16:32:00,56.0,26.0,29.79,West,281,8.0,17.0,31,0.00,,,0.00,,2013-02-27 22:32:00,
2013-02-27 16:42:00,56.0,26.0,29.79,West,281,8.0,17.0,31,0.00,,,0.00,,2013-02-27 22:42:00,
2013-02-27 16:51:00,56.0,25.0,29.79,WNW,301,6.0,13.0,30,0.00,,,0.00,,2013-02-27 22:51:00,
2013-02-27 17:01:00,56.0,24.0,29.80,WNW,288,6.0,18.0,29,0.00,,,0.00,,2013-02-27 23:01:00,
2013-02-27 17:11:00,56.0,24.0,29.80,WNW,288,6.0,18.0,29,0.00,,,0.00,,2013-02-27 23:11:00,
2013-02-27 17:21:00,56.0,23.0,29.80,NW,324,4.0,11.0,27,0.00,,,0.00,,2013-02-27 23:21:00,
2013-02-27 17:32:00,55.0,22.0,29.80,North,355,6.0,15.0,27,0.00,,,0.00,,2013-02-27 23:32:00,
2013-02-27 17:42:00,55.0,22.0,29.80,North,355,6.0,15.0,27,0.00,,,0.00,,2013-02-27 23:42:00,
2013-02-27 17:52:00,55.0,21.0,29.80,West,269,8.0,17.0,26,0.00,,,0.00,,2013-02-27 23:52:00,
2013-02-27 18:02:00,54.0,22.0,29.80,NW,306,6.0,12.0,28,0.00,,,0.00,,2013-02-28 00:02:00,
2013-02-27 18:12:00,54.0,22.0,29.80,NW,306,6.0,12.0,28,0.00,,,0.00,,2013-02-28 00:12:00,
2013-02-27 18:21:00,54.0,22.0,29.80,NNW,327,7.0,13.0,28,0.00,,,0.00,,2013-02-28 00:21:00,
2013-02-27 18:32:00,53.0,20.0,29.81,WNW,290,4.0,12.0,27,0.00,,,0.00,,2013-02-28 00:32:00,
2013-02-27 18:42:00,53.0,20.0,29.81,WNW,290,4.0,12.0,27,0.00,,,0.00,,2013-02-28 00:42:00,
2013-02-27 18:52:00,52.0,20.0,29.82,WNW,287,5.0,12.0,28,0.00,,,0.00,,2013-02-28 00:52:00,
2013-02-27 19:01:00,51.0,21.0,29.82,SW,236,6.0,14.0,31,0.00,,,0.00,,2013-02-28 01:01:00,
2013-02-27 19:11:00,51.0,21.0,29.82,SW,236,6.0,14.0,31,0.00,,,0.00,,2013-02-28 01:11:00,
2013-02-27 19:21:00,50.0,21.0,29.83,WNW,288,6.0,14.0,32,0.00,,,0.00,,2013-02-28 01:21:00,
2013-02-27 19:32:00,50.0,23.0,29.84,NW,318,6.0,15.0,34,0.00,,,0.00,,2013-02-28 01:32:00,
2013-02-27 19:42:00,50.0,23.0,29.84,NW,318,6.0,15.0,34,0.00,,,0.00,,2013-02-28 01:42:00,
2013-02-27 19:52:00,49.0,23.0,29.84,WNW,298,5.0,12.0,36,0.00,,,0.00,,2013-02-28 01:52:00,
2013-02-27 20:01:00,49.0,25.0,29.85,NNW,348,3.0,8.0,38,0.00,,,0.00,,2013-02-28 02:01:00,
2013-02-27 20:11:00,49.0,25.0,29.85,NNW,348,3.0,8.0,38,0.00,,,0.00,,2013-02-28 02:11:00,
2013-02-27 20:22:00,48.0,24.0,29.86,WNW,290,5.0,12.0,39,0.00,,,0.00,,2013-02-28 02:22:00,
2013-02-27 20:32:00,48.0,25.0,29.86,WNW,295,6.0,11.0,40,0.00,,,0.00,,2013-02-28 02:32:00,
2013-02-27 20:41:00,48.0,25.0,29.86,WNW,295,6.0,11.0,40,0.00,,,0.00,,2013-02-28 02:41:00,
2013-02-27 20:51:00,48.0,25.0,29.86,WNW,295,6.0,11.0,40,0.00,,,0.00,,2013-02-28 02:51:00,
2013-02-27 21:01:00,46.0,25.0,29.87,NNW,336,4.0,12.0,43,0.00,,,0.00,,2013-02-28 03:01:00,
2013-02-27 21:11:00,46.0,25.0,29.87,NNW,336,4.0,12.0,43,0.00,,,0.00,,2013-02-28 03:11:00,
2013-02-27 21:21:00,46.0,25.0,29.88,NW,315,3.0,11.0,44,0.00,,,0.00,,2013-02-28 03:21:00,
2013-02-27 21:32:00,46.0,26.0,29.88,WNW,289,5.0,9.0,46,0.00,,,0.00,,2013-02-28 03:32:00,
2013-02-27 21:42:00,46.0,26.0,29.88,WNW,289,5.0,9.0,46,0.00,,,0.00,,2013-02-28 03:42:00,
2013-02-27 21:52:00,45.0,26.0,29.88,WNW,285,4.0,8.0,47,0.00,,,0.00,,2013-02-28 03:52:00,
2013-02-27 22:01:00,45.0,27.0,29.88,NW,323,4.0,10.0,48,0.00,,,0.00,,2013-02-28 04:01:00,
2013-02-27 22:11:00,45.0,27.0,29.88,NW,323,4.0,10.0,48,0.00,,,0.00,,2013-02-28 04:11:00,
2013-02-27 22:21:00,45.0,27.0,29.88,NW,323,4.0,10.0,48,0.00,,,0.00,,2013-02-28 04:21:00,
2013-02-27 22:32:00,44.0,27.0,29.90,WNW,298,3.0,7.0,50,0.00,,,0.00,,2013-02-28 04:32:00,
2013-02-27 22:42:00,44.0,27.0,29.90,WNW,298,3.0,7.0,50,0.00,,,0.00,,2013-02-28 04:42:00,
2013-02-27 22:52:00,43.0,26.0,29.91,NW,316,3.0,9.0,51,0.00,,,0.00,,2013-02-28 04:52:00,
2013-02-27 23:01:00,43.0,27.0,29.91,NNW,336,1.0,5.0,52,0.00,,,0.00,,2013-02-28 05:01:00,
2013-02-27 23:11:00,43.0,27.0,29.91,NNW,336,1.0,5.0,52,0.00,,,0.00,,2013-02-28 05:11:00,
2013-02-27 23:22:00,42.0,26.0,29.91,NW,315,2.0,7.0,52,0.00,,,0.00,,2013-02-28 05:22:00,
2013-02-27 23:32:00,42.0,27.0,29.91,NNW,331,2.0,6.0,54,0.00,,,0.00,,2013-02-28 05:32:00,
2013-02-27 23:42:00,42.0,27.0,29.91,NNW,331,2.0,6.0,54,0.00,,,0.00,,2013-02-28 05:42:00,
2013-02-27 23:52:00,41.0,26.0,29.92,West,281,3.0,7.0,55,0.00,,,0.00,,2013-02-28 05:52:00,